[[{"header":{"parameterUnit":"m.s-1","parameterCategory":1,"la1":30.2991,"la2":30.254,"lo1":-89.0895,"lo2":-89.0444,"dy":0.0017,"dx":0.0017,"nx":28,"ny":28,"refTime":"2024-04-04T03:00:00:Z","depth":0,"parameterNumber":2,"parameterNumberName":"U-component_of_WINDS"},"data":[0,0,0,0,0,0,0,0,0,0,0,0,0,0,0,0,0,0,0,0,0,0,0,0,0,0,0,0,0,0,0,0,0,0,0,0,0,0,0,0,0,0,0,0,0,0,0,0,0,0,0,0,0,0,0,0,0,0,-1.5179,-1.5179,0,-1.516,-1.516,-1.516,-1.5121,-1.512,-1.5119,-1.5118,-1.5097,-1.5097,-1.5098,0,0,0,0,0,0,0,0,0,0,0,0,0,-1.5181,-1.5182,-1.5179,-1.5179,-1.5178,-1.516,-1.516,-1.5159,-1.5121,-1.512,-1.5119,-1.5118,-1.5097,-1.5097,-1.5098,0,0,0,0,0,0,0,0,0,0,0,0,0,-1.5173,-1.5182,-1.5179,-1.5157,-1.5155,-1.516,-1.516,-1.5159,-1.5121,-1.512,-1.5119,-1.5118,-1.5097,-1.5097,-1.5098,-1.5122,0,0,-1.5098,-1.5098,0,0,0,0,0,0,0,0,-1.5174,-1.5173,-1.516,-1.5158,-1.5156,-1.5141,-1.5153,-1.5147,-1.5121,-1.5134,-1.5118,-1.5117,-1.5113,-1.5112,-1.5111,-1.5121,-1.512,-1.5098,-1.5099,-1.5099,-1.5099,0,0,0,0,0,0,0,-1.5174,-1.5174,-1.5171,-1.516,-1.5158,-1.5148,-1.5146,-1.5152,-1.513,-1.5133,-1.513,-1.5128,-1.5111,-1.5111,-1.511,-1.512,-1.5098,-1.5099,-1.5099,-1.5099,-1.5152,-1.5153,0,0,0,0,0,0,-1.5178,-1.5174,-1.5172,-1.5171,-1.5162,-1.5149,-1.5146,-1.5147,-1.513,-1.5126,-1.5129,-1.5126,-1.5111,-1.511,-1.5109,-1.5137,-1.5099,-1.5099,-1.5099,-1.5151,-1.5152,-1.5153,0,0,0,0,0,0,-1.5178,-1.5178,-1.5173,-1.5172,-1.517,-1.515,-1.5152,-1.5148,-1.5146,-1.5127,-1.5123,-1.5132,-1.511,-1.5109,-1.512,-1.5136,-1.5099,-1.5099,-1.5149,-1.5151,-1.5153,-1.5194,0,0,0,0,0,0,-1.5179,-1.5179,-1.5187,-1.5172,-1.5171,-1.5184,-1.5153,-1.5148,-1.5147,-1.5143,-1.5129,-1.5125,-1.5109,-1.512,-1.512,-1.5135,-1.5099,-1.5147,-1.515,-1.5152,-1.5191,-1.5197,-1.5202,0,0,0,0,0,-1.5179,-1.5199,-1.5188,-1.5188,-1.5181,-1.5185,-1.5184,-1.5164,-1.5149,-1.5158,-1.5146,-1.5126,-1.5135,-1.5121,-1.5121,-1.5137,-1.5146,-1.5149,-1.5152,-1.5188,-1.5195,-1.5202,0,0,0,0,0,0,-1.5215,-1.5196,-1.5184,-1.52,-1.5195,-1.5178,-1.5188,-1.5173,-1.5171,-1.5167,-1.5143,-1.514,-1.5155,-1.5147,-1.5133,-1.5161,-1.5137,-1.514,-1.5165,-1.5172,-1.5177,-1.5178,-1.51,0,0,0,0,0,-1.5225,-1.523,-1.5213,-1.5229,-1.5227,-1.5209,-1.5209,-1.5195,-1.5188,-1.5185,-1.5174,-1.5168,-1.5169,-1.517,-1.517,-1.519,-1.5187,-1.5201,-1.5207,-1.5212,-1.5214,-1.5225,-1.5231,-1.5163,-1.5163,-1.5163,0,0,-1.5245,-1.5236,-1.524,-1.5236,-1.523,-1.5235,-1.5206,-1.5213,-1.5217,-1.5186,-1.5196,-1.5188,-1.5179,-1.5195,-1.5202,-1.5189,-1.5233,-1.5215,-1.5219,-1.5219,-1.5229,-1.5235,-1.5241,-1.5165,-1.5164,-1.5164,0,0,-1.5284,-1.5278,-1.5291,-1.5286,-1.5278,-1.5266,-1.527,-1.5257,-1.525,-1.526,-1.5238,-1.5243,-1.5245,-1.524,-1.5238,-1.528,-1.5261,-1.5281,-1.5309,-1.532,-1.5325,-1.533,-1.5344,-1.535,-1.5283,-1.5284,-1.5284,0,-1.531,-1.5317,-1.5299,-1.5308,-1.5307,-1.5282,-1.5295,-1.5291,-1.5283,-1.5283,-1.527,-1.5274,-1.5267,-1.5282,-1.5292,-1.5291,-1.5294,-1.5281,-1.5326,-1.533,-1.5334,-1.5348,-1.5354,-1.5286,-1.5286,-1.5285,-1.5285,0,-1.535,-1.5355,-1.5367,-1.5361,-1.5362,-1.5373,-1.5356,-1.536,-1.5347,-1.5337,-1.5348,-1.5339,-1.5337,-1.534,-1.5327,-1.5354,-1.5347,-1.533,-1.5306,-1.5344,-1.5356,-1.5361,-1.5289,-1.5288,-1.5288,-1.5287,0,0,-1.5407,-1.5395,-1.5399,-1.5397,-1.5388,-1.5392,-1.5403,-1.5402,-1.5405,-1.5402,-1.541,-1.5415,-1.54,-1.5398,-1.5384,-1.5394,-1.5428,-1.5377,-1.5376,-1.5386,-1.5458,-1.5469,-1.5475,-1.5417,-1.5418,-1.5419,-1.5458,0,-1.5444,-1.5461,-1.5446,-1.5466,-1.5471,-1.5449,-1.5459,-1.5454,-1.5446,-1.545,-1.544,-1.5444,-1.5425,-1.5423,-1.5432,-1.5422,-1.5442,-1.5419,-1.5424,-1.5424,-1.5425,-1.5482,-1.5493,-1.5531,-1.5463,-1.5464,-1.5464,0,-1.5487,-1.5487,-1.5508,-1.55,-1.5502,-1.551,-1.551,-1.5514,-1.5509,-1.5503,-1.5502,-1.5487,-1.5497,-1.5475,-1.5489,-1.5474,-1.5475,-1.5471,-1.5472,-1.547,-1.5445,-1.5481,-1.5542,-1.5547,-1.5472,-1.5471,-1.5471,0,-1.5527,-1.5533,-1.5546,-1.5545,-1.5536,-1.5543,-1.5539,-1.5533,-1.5535,-1.5535,-1.5536,-1.5537,-1.5537,-1.5538,-1.5524,-1.5509,-1.554,-1.5516,-1.5534,-1.5535,-1.5539,-1.5539,-1.5601,-1.5543,-1.5543,-1.5543,-1.5543,0,-1.5568,-1.5581,-1.5564,-1.5572,-1.5587,-1.5571,-1.5586,-1.558,-1.5576,-1.5583,-1.5564,-1.5571,-1.5553,-1.5558,-1.5547,-1.556,-1.556,-1.5555,-1.5552,-1.5556,-1.5557,-1.5555,-1.5552,-1.5544,-1.5544,-1.5544,-1.5544,0,-1.5613,-1.5602,-1.5615,-1.5607,-1.5605,-1.5617,-1.5609,-1.5617,-1.5609,-1.5618,-1.5619,-1.5606,-1.5611,-1.5598,-1.5601,-1.5594,-1.5613,-1.5606,-1.5614,-1.5612,-1.563,-1.5628,-1.5692,-1.5699,-1.5638,-1.5639,-1.5639,0,-1.5639,-1.5649,-1.5643,-1.5646,-1.5644,-1.565,-1.5653,-1.5638,-1.5641,-1.5639,-1.5647,-1.5651,-1.5653,-1.5663,-1.5653,-1.5656,-1.5648,-1.5671,-1.5648,-1.5652,-1.5647,-1.5646,-1.5647,-1.5674,-1.5675,-1.5676,-1.5676,0,-1.5686,-1.5681,-1.5685,-1.5688,-1.5692,-1.5693,-1.5693,-1.5697,-1.5682,-1.5687,-1.5693,-1.5695,-1.5699,-1.5703,-1.5704,-1.5701,-1.5686,-1.5684,-1.5688,-1.5691,-1.5695,-1.5693,-1.5625,-1.5682,-1.5681,-1.5681,-1.568,-1.568,-1.5721,-1.573,-1.5727,-1.5733,-1.5733,-1.5734,-1.5741,-1.5735,-1.574,-1.5743,-1.5734,-1.5742,-1.574,-1.574,-1.5738,-1.5745,-1.5734,-1.574,-1.5741,-1.5743,-1.5746,-1.5696,-1.5745,-1.5745,-1.5744,-1.5744,-1.5744,0,-1.5767,-1.5765,-1.5771,-1.5772,-1.5777,-1.5766,-1.5766,-1.577,-1.5778,-1.5778,-1.5781,-1.5789,-1.5794,-1.5786,-1.579,-1.5797,-1.579,-1.5798,-1.5796,-1.5796,-1.5755,-1.575,-1.5803,-1.5803,-1.5803,-1.5803,-1.5803,-1.5803,-1.579,-1.5805,-1.58,-1.5814,-1.5812,-1.5821,-1.5822,-1.5823,-1.5823,-1.5833,-1.5837,-1.5833,-1.583,-1.5834,-1.5838,-1.5836,-1.5838,-1.5848,-1.5843,-1.5804,-1.5799,-1.5793,-1.5789,-1.5849,-1.5849,-1.5884,-1.5884,-1.5884]},{"header":{"parameterUnit":"m.s-1","parameterCategory":1,"la1":30.2991,"la2":30.254,"lo1":-89.0895,"lo2":-89.0444,"dy":0.0017,"dx":0.0017,"nx":28,"ny":28,"refTime":"2024-04-04T03:00:00:Z","depth":0,"parameterNumber":3,"parameterNumberName":"V-component_of_WINDS"},"data":[0,0,0,0,0,0,0,0,0,0,0,0,0,0,0,0,0,0,0,0,0,0,0,0,0,0,0,0,0,0,0,0,0,0,0,0,0,0,0,0,0,0,0,0,0,0,0,0,0,0,0,0,0,0,0,0,0,0,-1.3701,-1.3701,0,-1.3702,-1.3702,-1.3702,-1.3683,-1.3682,-1.3682,-1.3681,-1.3681,-1.3682,-1.3682,0,0,0,0,0,0,0,0,0,0,0,0,0,-1.3683,-1.3684,-1.3701,-1.3701,-1.3702,-1.3702,-1.3702,-1.3702,-1.3683,-1.3682,-1.3682,-1.3681,-1.3681,-1.3682,-1.3682,0,0,0,0,0,0,0,0,0,0,0,0,0,-1.3688,-1.3684,-1.3701,-1.3692,-1.3691,-1.3702,-1.3702,-1.3702,-1.3683,-1.3682,-1.3681,-1.3681,-1.3681,-1.3682,-1.3683,-1.3702,0,0,-1.3685,-1.3685,0,0,0,0,0,0,0,0,-1.3688,-1.3689,-1.3693,-1.3693,-1.3692,-1.3692,-1.3696,-1.3702,-1.3683,-1.3686,-1.3681,-1.368,-1.3685,-1.3686,-1.3688,-1.3702,-1.3702,-1.3685,-1.3685,-1.3686,-1.3686,0,0,0,0,0,0,0,-1.3688,-1.3689,-1.3702,-1.3693,-1.3692,-1.3688,-1.3687,-1.3697,-1.369,-1.3686,-1.3684,-1.3685,-1.3685,-1.3687,-1.3687,-1.3702,-1.3685,-1.3685,-1.3686,-1.3686,-1.3734,-1.3735,0,0,0,0,0,0,-1.3689,-1.3689,-1.3702,-1.3702,-1.3688,-1.3689,-1.3688,-1.3692,-1.369,-1.3689,-1.3685,-1.3684,-1.3686,-1.3687,-1.3687,-1.3711,-1.3686,-1.3686,-1.3687,-1.3733,-1.3734,-1.3735,0,0,0,0,0,0,-1.3689,-1.369,-1.3702,-1.3695,-1.3696,-1.369,-1.3694,-1.3693,-1.3695,-1.369,-1.3688,-1.3689,-1.3685,-1.3686,-1.3699,-1.3711,-1.3687,-1.3687,-1.3732,-1.3734,-1.3735,-1.3759,0,0,0,0,0,0,-1.3688,-1.369,-1.3698,-1.3695,-1.3696,-1.3713,-1.3695,-1.3693,-1.3696,-1.3694,-1.3692,-1.3691,-1.3685,-1.3698,-1.37,-1.3711,-1.3688,-1.3731,-1.3733,-1.3734,-1.3757,-1.376,-1.3764,0,0,0,0,0,-1.3688,-1.3704,-1.3698,-1.37,-1.3706,-1.3714,-1.3715,-1.3707,-1.3697,-1.3705,-1.3701,-1.3691,-1.3709,-1.3699,-1.3701,-1.3713,-1.373,-1.3732,-1.3734,-1.3755,-1.376,-1.3764,0,0,0,0,0,0,-1.3708,-1.3704,-1.3697,-1.3713,-1.3714,-1.3711,-1.372,-1.3712,-1.3716,-1.3714,-1.3704,-1.3704,-1.3718,-1.3717,-1.3706,-1.3733,-1.3718,-1.372,-1.3733,-1.3738,-1.3741,-1.3742,-1.3688,0,0,0,0,0,-1.3715,-1.3722,-1.3718,-1.3732,-1.3733,-1.3727,-1.373,-1.3724,-1.3725,-1.3725,-1.3722,-1.3723,-1.3729,-1.3733,-1.3738,-1.3756,-1.3756,-1.3765,-1.3769,-1.3771,-1.3774,-1.3784,-1.3789,-1.3741,-1.3741,-1.3741,0,0,-1.3728,-1.3727,-1.3732,-1.3737,-1.3737,-1.3745,-1.3727,-1.3736,-1.3742,-1.3726,-1.3738,-1.3736,-1.3737,-1.3752,-1.3759,-1.3752,-1.3787,-1.3774,-1.3776,-1.3777,-1.3787,-1.3791,-1.3795,-1.3743,-1.3742,-1.3742,0,0,-1.3757,-1.3756,-1.3769,-1.377,-1.377,-1.3765,-1.3768,-1.3766,-1.3764,-1.3776,-1.3765,-1.3771,-1.3781,-1.3782,-1.3784,-1.3813,-1.3804,-1.3815,-1.3833,-1.3843,-1.3847,-1.3851,-1.3862,-1.3866,-1.3817,-1.3817,-1.3817,0,-1.3774,-1.3786,-1.3777,-1.3787,-1.3789,-1.3775,-1.3788,-1.3789,-1.3791,-1.3793,-1.3784,-1.3797,-1.3796,-1.3812,-1.3819,-1.382,-1.3824,-1.3815,-1.3847,-1.3851,-1.3854,-1.3864,-1.3868,-1.3818,-1.3818,-1.3818,-1.3818,0,-1.3807,-1.3815,-1.3825,-1.3828,-1.3831,-1.3843,-1.3835,-1.384,-1.3833,-1.383,-1.3842,-1.3841,-1.3845,-1.3848,-1.3842,-1.3864,-1.3859,-1.3849,-1.3834,-1.386,-1.387,-1.3874,-1.382,-1.382,-1.3819,-1.3819,0,0,-1.385,-1.3847,-1.3851,-1.3852,-1.3852,-1.3858,-1.3868,-1.3873,-1.3878,-1.3879,-1.3888,-1.3897,-1.3887,-1.3889,-1.3883,-1.3891,-1.3916,-1.388,-1.388,-1.3888,-1.3941,-1.3949,-1.3954,-1.3909,-1.391,-1.3911,-1.3941,0,-1.3879,-1.3898,-1.389,-1.3909,-1.3917,-1.3903,-1.3912,-1.3913,-1.391,-1.3916,-1.3912,-1.3919,-1.3905,-1.3907,-1.3915,-1.3911,-1.3927,-1.3909,-1.3918,-1.3919,-1.392,-1.3959,-1.3968,-1.3997,-1.3945,-1.3945,-1.3946,0,-1.3916,-1.3919,-1.3939,-1.3938,-1.3941,-1.3949,-1.3953,-1.3959,-1.3959,-1.3956,-1.3958,-1.395,-1.396,-1.3944,-1.3959,-1.3947,-1.395,-1.3949,-1.395,-1.3952,-1.3935,-1.3963,-1.4006,-1.4011,-1.3952,-1.3951,-1.3951,0,-1.3946,-1.3956,-1.397,-1.3971,-1.3969,-1.3975,-1.3975,-1.3974,-1.3977,-1.398,-1.3983,-1.3987,-1.3989,-1.3993,-1.3986,-1.3975,-1.4001,-1.3985,-1.4,-1.4,-1.4007,-1.4007,-1.4052,-1.4007,-1.4007,-1.4007,-1.4007,0,-1.3981,-1.3994,-1.3984,-1.3992,-1.4006,-1.3997,-1.4011,-1.4009,-1.4009,-1.4017,-1.4004,-1.4012,-1.4002,-1.4008,-1.4002,-1.4016,-1.4017,-1.4015,-1.4013,-1.4017,-1.4017,-1.402,-1.4018,-1.4008,-1.4008,-1.4008,-1.4007,0,-1.4018,-1.4012,-1.4026,-1.4022,-1.4022,-1.4033,-1.403,-1.4038,-1.4033,-1.4044,-1.4045,-1.4039,-1.4046,-1.4039,-1.4045,-1.4041,-1.4059,-1.4054,-1.406,-1.4059,-1.4074,-1.4074,-1.4124,-1.4131,-1.408,-1.408,-1.4081,0,-1.4041,-1.4051,-1.4049,-1.4053,-1.4054,-1.4061,-1.4064,-1.4055,-1.4059,-1.406,-1.4068,-1.4074,-1.4078,-1.409,-1.4086,-1.4091,-1.4087,-1.4104,-1.4088,-1.4091,-1.4089,-1.4089,-1.409,-1.4108,-1.4109,-1.4109,-1.411,0,-1.4083,-1.4079,-1.4085,-1.4089,-1.4094,-1.4097,-1.4099,-1.4103,-1.4094,-1.4099,-1.4106,-1.411,-1.4116,-1.4123,-1.4127,-1.4126,-1.4117,-1.4115,-1.4119,-1.4123,-1.4126,-1.4126,-1.407,-1.4114,-1.4113,-1.4113,-1.4113,-1.4113,-1.4114,-1.4123,-1.4123,-1.413,-1.413,-1.4133,-1.414,-1.4136,-1.4142,-1.4148,-1.4141,-1.415,-1.415,-1.4154,-1.4155,-1.4162,-1.4154,-1.416,-1.4161,-1.4163,-1.4166,-1.4124,-1.4162,-1.4162,-1.4162,-1.4162,-1.4162,0,-1.4156,-1.4156,-1.4162,-1.4166,-1.4171,-1.4161,-1.4163,-1.4168,-1.4176,-1.4177,-1.4182,-1.419,-1.4197,-1.4193,-1.4198,-1.4204,-1.42,-1.4206,-1.4206,-1.4206,-1.4172,-1.4168,-1.4209,-1.4209,-1.4209,-1.4209,-1.4209,-1.4209,-1.4179,-1.4193,-1.419,-1.4204,-1.4203,-1.4212,-1.4214,-1.4216,-1.4217,-1.4227,-1.4232,-1.4229,-1.4228,-1.4233,-1.4239,-1.4237,-1.424,-1.4248,-1.4245,-1.4213,-1.4209,-1.4204,-1.4201,-1.4249,-1.4249,-1.428,-1.428,-1.428]}]]